Wilmington, NC

3:30 PM EDT on June 25, 2017 (GMT -0400)
Wilmington International

Weather History for KILM - May, 2013

Change the Weather History Date:

Monday, May 6, 2013

  Actual Average Record
Temperature  
Mean Temperature 65 °F 68 °F  
Max Temperature 76 °F 79 °F 95 °F (1952)
Min Temperature 54 °F 57 °F 42 °F (1920)
Degree Days  
Heating Degree Days 0 2  
Month to date heating degree days 13 12  
Since 1 July heating degree days 2426 2394  
Cooling Degree Days 0 4  
Month to date cooling degree days 2 24  
Year to date cooling degree days 64 112  
Growing Degree Days 18 (Base 50)    
Moisture  
Dew Point 60 °F    
Average Humidity 74    
Maximum Humidity 93    
Minimum Humidity 54    
Precipitation  
Precipitation 0.41 in 0.13 in 2.17 in (2005)
Month to date precipitation 0.55 0.70  
Year to date precipitation 15.96 15.11  
Sea Level Pressure  
Sea Level Pressure 29.90 in    
Wind  
Wind Speed 8 mph (SE)    
Max Wind Speed 21 mph    
Max Gust Speed 26 mph    
Visibility 9 miles    
Events Rain , Thunderstorm    
T = Trace of Precipitation, MM = Missing Value Source: NWS Daily Summary

Daily Weather History Graph

Daily Weather History Graph

Search for Another Location

Airport or City:

Trip Planner

Search our weather history database for the weather conditions in past years. The results will help you decide how hot, cold, wet, or windy it might be!

Date:

Astronomy

May. 06, 2013 Rise Set
Actual Time 6:16 AM EDT 7:59 PM EDT
Civil Twilight 5:49 AM EDT 8:27 PM EDT
Nautical Twilight 5:17 AM EDT 8:59 PM EDT
Astronomical Twilight 4:42 AM EDT 9:34 PM EDT
Moon 4:09 AM EDT (5/6) 5:05 PM EDT (5/6)
Length of Visible Light 14h 37m
Length of Day
13h 43m
Waning Crescent, 11% of the Moon is Illuminated
May 6
Waning Crescent
May 9
New
May 18
First Quarter
May 25
Full
May 31
Last Quarter

Hourly Weather History & Observations

Time (EDT) Temp. Dew Point Humidity Pressure Visibility Wind Dir Wind Speed Gust Speed Precip Events Conditions
12:53 AM 64.9 °F 59.0 °F 81% 29.94 in 10.0 mi East 5.8 mph - 0.00 in   Scattered Clouds
1:53 AM 66.0 °F 59.0 °F 78% 29.92 in 10.0 mi ESE 8.1 mph - 0.00 in   Overcast
2:53 AM 66.9 °F 59.0 °F 76% 29.91 in 10.0 mi ESE 11.5 mph 18.4 mph 0.00 in   Overcast
3:53 AM 66.0 °F 61.0 °F 84% 29.90 in 9.0 mi SSE 9.2 mph 17.3 mph 0.00 in Rain Light Rain
4:04 AM 66.2 °F 60.8 °F 83% 29.90 in 10.0 mi ESE 9.2 mph - 0.00 in Rain Light Rain
4:44 AM 66.2 °F 60.8 °F 83% 29.90 in 10.0 mi ESE 10.4 mph - 0.00 in Rain Light Rain
4:53 AM 66.0 °F 61.0 °F 84% 29.89 in 10.0 mi ESE 8.1 mph - 0.00 in   Overcast
5:53 AM 66.0 °F 60.1 °F 81% 29.89 in 10.0 mi SE 5.8 mph - N/A   Overcast
6:10 AM 66.2 °F 60.8 °F 83% 29.89 in 10.0 mi SE 6.9 mph - N/A   Overcast
6:53 AM 66.0 °F 60.1 °F 81% 29.91 in 10.0 mi SE 8.1 mph - N/A   Overcast
7:53 AM 68.0 °F 59.0 °F 73% 29.91 in 10.0 mi SSE 11.5 mph - N/A   Overcast
8:04 AM 68.0 °F 60.8 °F 78% 29.91 in 10.0 mi SE 8.1 mph - N/A   Overcast
8:25 AM 68.0 °F 60.8 °F 78% 29.92 in 10.0 mi SE 11.5 mph 17.3 mph N/A   Overcast
8:53 AM 69.1 °F 61.0 °F 75% 29.91 in 10.0 mi ESE 13.8 mph 23.0 mph N/A   Overcast
9:53 AM 68.0 °F 61.0 °F 78% 29.91 in 10.0 mi ESE 15.0 mph 21.9 mph 0.00 in Rain Light Rain
10:53 AM 66.9 °F 63.0 °F 87% 29.90 in 9.0 mi East 11.5 mph 19.6 mph 0.02 in Rain Light Rain
11:15 AM 66.2 °F 62.6 °F 88% 29.90 in 2.0 mi SE 8.1 mph 17.3 mph 0.05 in Rain Rain
11:22 AM 66.2 °F 64.4 °F 94% 29.90 in 1.5 mi ESE 4.6 mph - 0.12 in Rain Heavy Rain
11:29 AM 66.2 °F 62.6 °F 88% 29.92 in 1.2 mi SSE 9.2 mph - 0.18 in Rain , Thunderstorm Heavy Thunderstorms and Rain
11:33 AM 66.2 °F 62.6 °F 88% 29.92 in 0.8 mi SE 20.7 mph 26.5 mph 0.23 in Rain , Thunderstorm Heavy Thunderstorms and Rain
11:43 AM 64.4 °F 60.8 °F 88% 29.91 in 1.5 mi SE 9.2 mph 25.3 mph 0.39 in Rain , Thunderstorm Light Thunderstorms and Rain
11:46 AM 66.2 °F 62.6 °F 88% 29.90 in 3.0 mi ESE 11.5 mph 18.4 mph 0.39 in Rain Light Rain
11:53 AM 66.0 °F 63.0 °F 90% 29.90 in 10.0 mi East 9.2 mph - 0.39 in   Overcast
12:12 PM 66.2 °F 62.6 °F 88% 29.90 in 10.0 mi SE 11.5 mph - 0.00 in Rain Light Rain
12:53 PM 70.0 °F 63.0 °F 78% 29.90 in 10.0 mi SE 6.9 mph - 0.00 in   Scattered Clouds
1:53 PM 72.0 °F 63.0 °F 73% 29.88 in 10.0 mi SE 6.9 mph - N/A   Partly Cloudy
2:53 PM 75.9 °F 57.9 °F 54% 29.88 in 10.0 mi SW 12.7 mph - N/A   Mostly Cloudy
3:53 PM 75.0 °F 59.0 °F 57% 29.86 in 10.0 mi South 11.5 mph 16.1 mph N/A   Mostly Cloudy
4:53 PM 73.9 °F 57.9 °F 57% 29.86 in 10.0 mi SW 11.5 mph 17.3 mph N/A   Partly Cloudy
5:53 PM 73.0 °F 57.0 °F 57% 29.86 in 10.0 mi South 8.1 mph - N/A   Partly Cloudy
6:53 PM 71.1 °F 55.9 °F 59% 29.87 in 10.0 mi SSW 9.2 mph - N/A   Partly Cloudy
7:53 PM 66.9 °F 55.9 °F 68% 29.88 in 10.0 mi South 5.8 mph - N/A   Clear
8:53 PM 64.0 °F 55.0 °F 73% 29.89 in 10.0 mi South 6.9 mph - N/A   Clear
9:53 PM 63.0 °F 55.9 °F 78% 29.91 in 10.0 mi South 5.8 mph - N/A   Clear
10:53 PM 62.1 °F 55.0 °F 78% 29.92 in 10.0 mi Calm Calm - N/A   Clear
11:53 PM 55.9 °F 54.0 °F 93% 29.92 in 10.0 mi Calm Calm - N/A   Clear